Japanese version Home page |
Updated on August 21, 2010 |
Profile
|
Orbital ElementsEpoch 2009 July 28.0 TT = JDT 2455040.5 T 2009 July 25.56417 TT MPC q 1.6521195 (2000.0) P Q n 0.10413626 Peri. 220.32448 -0.43209690 -0.88152749 a 4.4743993 Node 256.05307 +0.86964625 -0.35144090 e 0.6307617 Incl. 11.30587 +0.23876279 -0.31527541 P 9.46
|
Magnitudes Graphm1 = 15.5 + 5 log d + 10 log r
|
The orbital elements are published on M.P.E.C. 2010-P21.
|